Zurück zum Katalog

COSMOS 970 DEB

AktivLEO
NORAD 65009·DEBRIS·🇷🇺 Russia

Gestartet Dec 21, 1977 von Baikonur Cosmodrome

Loading…

Nächste Überflüge (nächste 24 Stunden)

TLE

AlterndSource: Space-Track

Epoche: Sep 11, 2026, 10:19 UTC

1 65009U 77121DW  26254.43015439  .00001003  00000-0  96104-3 0  9993
2 65009  65.8407 238.1978 0106691  78.9100   1.3030 13.82297254203867

Verfolge COSMOS 970 DEB in Echtzeit mit AllMySat

Download on the App Store